Regional Weather Roundup
Issued by NWS Jackson, KY

Home | Current Version | Previous Version | Graphics & Text | Print | Product List | Glossary On
Versions: 1 2 3 4 5 6 7 8 9 10 11 12 13 14 15 16 17 18 19 20 21 22 23 24 25 26 27 28 29 30 31 32 33 34 35 36 37 38 39 40 41 42 43 44 45 46 47 48 49 50
000
ASUS43 KJKL 210410
RWRJKL

EAST KENTUCKY HOURLY WEATHER ROUNDUP
NATIONAL WEATHER SERVICE JACKSON KY
1100 PM EST SAT DEC 20 2014

NOTE: "FAIR" INDICATES FEW OR NO CLOUDS BELOW 12,000 FEET WITH
NO SIGNIFICANT WEATHER AND/OR OBSTRUCTIONS TO VISIBILITY.

* THESE REPORTS ARE NOT UNDER NWS QUALITY CONTROL AND MAY NOT
  REPORT WEATHER SUCH AS PRECIPITATION AND FOG.

KYZ079-080-083-085-087-088-110-112-115-119-120-210500
...EASTERN KENTUCKY...

CITY           SKY/WX    TMP DP  RH WIND       PRES   REMARKS
JACKSON        CLEAR     29  23  78 NE3       30.25S
LONDON         CLEAR     30  32 100 N5        30.25S WCI  25
SOMERSET*      CLEAR     28  25  86 CALM      30.28S
MONTICELLO*    CLEAR     25  23  91 CALM      30.30R
MIDDLESBORO*   CLEAR     30  28  90 CALM      30.26S
HARLAN APT*    CLEAR     32  28  86 NE3       30.24S
HAZARD APT*    CLEAR     30  27  86 CALM      30.25F
BLACK MTN*       N/A     28  25  86 CALM        N/A
PIKEVILLE APT* CLEAR     30  25  80 N5        30.24S WCI  25
BIG SANDY*     CLOUDY    32  28  82 NE3       30.26S
MOREHEAD APT*  CLOUDY    32  27  80 CALM      30.29S
$$

KYZ035-036-041-042-044-050-067-078-099-210500
...CENTRAL KENTUCKY...

CITY           SKY/WX    TMP DP  RH WIND       PRES   REMARKS
MT STERLING*   CLOUDY    32  28  86 CALM      30.29S
FLEMING/MASON* CLOUDY    30  27  86 CALM      30.29S
DANVILLE*      CLEAR     23  23 100 CALM      30.29S
RICHMOND*      CLEAR     27  25  93 CALM      30.27S
LEXINGTON      CLEAR     27  24  89 CALM      30.28R
FRANKFORT      CLEAR     24  21  88 CALM      30.28S
$$

KYZ091>093-OHZ055-061-077-WVZ005-015-034-035-042-210500
...SOUTHERN OHIO/WEST VIRGINIA...

CITY           SKY/WX    TMP DP  RH WIND       PRES   REMARKS
COVINGTON      CLOUDY    32  25  75 CALM      30.29R HAZE
COLUMBUS       CLOUDY    30  24  78 CALM      30.28F
DAYTON         MOCLDY    28  22  78 CALM      30.28S
WILMINGTON     MOCLDY    28  23  81 CALM      30.27F HAZE
HUNTINGTON     CLOUDY    32  26  78 CALM      30.28R
CHARLESTON     CLOUDY    33  25  72 CALM      30.27R
PINEVILLE*     CLOUDY    35  34  96 MISG      30.27S
BECKLEY        CLOUDY    32  25  75 CALM      30.19S
BLUEFIELD      CLOUDY    33  29  85 W5        30.19S WCI  29
$$

VAZ002-007-008-TNZ017-027-036-066-071-210500
...SOUTHWEST VIRGINIA/EAST TENNESSEE...

CITY           SKY/WX    TMP DP  RH WIND       PRES   REMARKS
WISE*          CLOUDY    34  30  86 CALM      30.20S
JONESVILLE*    CLEAR     32  30  93 CALM      30.25S
ABINGDON*      CLOUDY    40  38  95 W5        30.20S
BRISTOL        CLOUDY    40  38  93 CALM      30.23S FOG
KNOXVILLE      CLOUDY    41  36  82 NE5       30.23S
OAK RIDGE      CLEAR     34  30  85 CALM      30.25S
CROSSVILLE     CLEAR     34  25  69 NE3       30.22S
NASHVILLE      PTCLDY    33  27  78 CALM      30.27S
$$

...KEY TO REMARKS...
VSB - VISIBILITY IN MILES
WCI - WIND CHILL INDEX
HX  - HEAT INDEX

$$



USA.gov is the U.S. government's official web portal to all federal, state and local government web resources and services.